| time (UTC) | temp C | wind direction | speed KPH | gust KPH | rain 1hr cm | rain 24hr cm | rain mn cm | humidity % | barometer mb |
| 20260506233017 | 5 | 135 | 1.6 | 4.8 | 0.18 | 0.89 | 0.89 | 67 | 1022.0 |
| 20260506232017 | 4 | 138 | 0.0 | 3.2 | 0.15 | 0.84 | 0.84 | 67 | 1022.0 |
| 20260506231035 | 4 | 280 | 0.0 | 6.4 | 0.18 | 0.81 | 0.81 | 68 | 1022.1 |
| 20260506230015 | 3 | 140 | 0.0 | 3.2 | 0.15 | 0.79 | 0.79 | 71 | 1022.1 |
| 20260506225016 | 2 | 141 | 0.0 | 3.2 | 0.15 | 0.74 | 0.74 | 72 | 1022.2 |
| 20260506224056 | 2 | 137 | 1.6 | 4.8 | 0.15 | 0.74 | 0.71 | 72 | 1022.4 |
| 20260506223056 | 2 | 120 | 0.0 | 1.6 | 0.18 | 0.71 | 0.71 | 74 | 1022.4 |
| 20260506222016 | 2 | 134 | 1.6 | 6.4 | 0.20 | 0.71 | 0.69 | 74 | 1022.5 |
| 20260506221017 | 2 | 130 | 0.0 | 3.2 | 0.18 | 0.71 | 0.64 | 74 | 1022.6 |
| 20260506220015 | 2 | 136 | 1.6 | 3.2 | 0.20 | 0.71 | 0.61 | 76 | 1022.7 |
| 20260506215015 | 1 | 136 | 0.0 | 1.6 | 0.20 | 0.69 | 0.58 | 77 | 1022.8 |
| 20260506214035 | 1 | 143 | 1.6 | 3.2 | 0.23 | 0.69 | 0.56 | 77 | 1022.8 |
| 20260506213016 | 1 | 138 | 1.6 | 4.8 | 0.23 | 0.66 | 0.51 | 78 | 1022.9 |
| 20260506212036 | 2 | 132 | 1.6 | 4.8 | 0.25 | 0.64 | 0.48 | 78 | 1023.0 |
| 20260506211037 | 2 | 96 | 0.0 | 1.6 | 0.30 | 0.66 | 0.46 | 80 | 1023.0 |
| 20260506210017 | 2 | 96 | 0.0 | 1.6 | 0.33 | 0.64 | 0.43 | 79 | 1023.1 |
| 20260506205015 | 1 | 108 | 0.0 | 1.6 | 0.30 | 0.61 | 0.38 | 79 | 1023.1 |
| 20260506204035 | 2 | 97 | 0.0 | 3.2 | 0.25 | 0.61 | 0.33 | 79 | 1023.2 |
| 20260506203015 | 2 | 22 | 0.0 | 1.6 | 0.23 | 0.58 | 0.28 | 80 | 1023.4 |
| 20260506202016 | 2 | 310 | 0.0 | 1.6 | 0.15 | 0.56 | 0.23 | 79 | 1023.5 |
| 20260506201016 | 2 | 261 | 0.0 | 1.6 | 0.13 | 0.51 | 0.15 | 79 | 1023.5 |
| 20260506200037 | 2 | 95 | 0.0 | 3.2 | 0.05 | 0.48 | 0.10 | 80 | 1023.5 |
| 20260506195017 | 2 | 95 | 0.0 | 1.6 | 0.05 | 0.48 | 0.08 | 80 | 1023.4 |
| 20260506194015 | 2 | 314 | 0.0 | 1.6 | 0.03 | 0.48 | 0.05 | 80 | 1023.4 |
| 20260506193015 | 2 | 181 | 0.0 | 1.6 | 0.05 | 0.51 | 0.05 | 83 | 1023.5 |
| 20260506192015 | 2 | 308 | 0.0 | 3.2 | 0.05 | 0.51 | 0.05 | 83 | 1023.5 |
| 20260506191016 | 1 | 98 | 0.0 | 1.6 | 0.03 | 0.51 | 0.05 | 85 | 1023.6 |
| 20260506190017 | 1 | 76 | 0.0 | 4.8 | 0.03 | 0.53 | 0.05 | 86 | 1023.6 |
| 20260506185057 | 1 | 317 | 0.0 | 4.8 | 0.03 | 0.56 | 0.05 | 88 | 1023.6 |
| 20260506184035 | 0 | 304 | 0.0 | 1.6 | 0.03 | 0.56 | 0.05 | 89 | 1023.7 |
| 20260506183015 | 0 | 309 | 1.6 | 8.0 | 0.00 | 0.56 | 0.03 | 88 | 1023.8 |
| 20260506182015 | 0 | 340 | 0.0 | 4.8 | 0.00 | 0.56 | 0.03 | 89 | 1023.7 |
| 20260506181016 | 0 | 325 | 1.6 | 8.0 | 0.03 | 0.56 | 0.03 | 89 | 1023.6 |
| 20260506180057 | 0 | 303 | 1.6 | 6.4 | 0.03 | 0.56 | 0.03 | 89 | 1023.5 |
| 20260506175036 | 0 | 300 | 1.6 | 6.4 | 0.03 | 0.56 | 0.03 | 89 | 1023.4 |
| 20260506174017 | 1 | 35 | 0.0 | 3.2 | 0.03 | 0.56 | 0.03 | 90 | 1023.4 |
| 20260506173014 | 1 | 18 | 0.0 | 1.6 | 0.03 | 0.58 | 0.03 | 89 | 1023.4 |
| 20260506172015 | 1 | 97 | 0.0 | 1.6 | 0.03 | 0.58 | 0.03 | 89 | 1023.3 |
| 20260506171015 | 1 | 10 | 0.0 | 3.2 | 0.00 | 0.56 | 0.00 | 89 | 1023.1 |
| 20260506170036 | 1 | 281 | 0.0 | 3.2 | 0.00 | 0.56 | 0.00 | 90 | 1022.8 |
| 20260506165016 | 0 | 307 | 0.0 | 4.8 | 0.00 | 0.56 | 0.00 | 90 | 1022.7 |
| 20260506164017 | 0 | 305 | 0.0 | 4.8 | 0.00 | 0.56 | 0.00 | 90 | 1022.7 |
| 20260506163017 | 0 | 302 | 0.0 | 4.8 | 0.00 | 0.56 | 0.00 | 90 | 1022.6 |
| 20260506162015 | 0 | 271 | 0.0 | 3.2 | 0.00 | 0.56 | 0.00 | 91 | 1022.7 |
| 20260506161035 | 0 | 15 | 0.0 | 4.8 | 0.00 | 0.56 | 0.00 | 91 | 1022.4 |
| 20260506160016 | 0 | 42 | 0.0 | 1.6 | 0.00 | 0.56 | 0.00 | 92 | 1022.5 |
| 20260506155016 | 0 | 209 | 0.0 | 1.6 | 0.00 | 0.56 | 0.00 | 92 | 1022.6 |
| 20260506154016 | 0 | 46 | 0.0 | 1.6 | 0.00 | 0.56 | 0.00 | 91 | 1022.6 |
| 20260506153016 | 0 | 60 | 0.0 | 4.8 | 0.00 | 0.56 | 0.00 | 92 | 1022.4 |
| 20260506152017 | 0 | 330 | 0.0 | 1.6 | 0.00 | 0.56 | 0.00 | 92 | 1022.2 |
| 20260506151015 | 0 | 215 | 0.0 | 1.6 | 0.00 | 0.56 | 0.00 | 92 | 1022.0 |
| 20260506150015 | 0 | 0.0 | 0.0 | 0.00 | 0.56 | 0.00 | 92 | 1021.9 | |
| 20260506145056 | 0 | 0.0 | 0.0 | 0.00 | 0.56 | 0.00 | 92 | 1021.9 | |
| 20260506144016 | 0 | 151 | 0.0 | 3.2 | 0.00 | 0.56 | 0.00 | 93 | 1021.8 |
| 20260506143016 | 0 | 0.0 | 0.0 | 0.00 | 0.58 | 0.00 | 93 | 1021.8 | |
| 20260506142016 | 0 | 0.0 | 0.0 | 0.00 | 0.58 | 0.00 | 93 | 1021.7 | |
| 20260506141037 | 0 | 0.0 | 0.0 | 0.00 | 0.58 | 0.00 | 93 | 1021.8 | |
| 20260506140014 | 0 | 0.0 | 0.0 | 0.00 | 0.61 | 0.00 | 93 | 1021.8 | |
| 20260506135035 | 0 | 0.0 | 0.0 | 0.00 | 0.61 | 0.00 | 94 | 1021.7 | |
| 20260506134035 | 0 | 0.0 | 0.0 | 0.00 | 0.61 | 0.00 | 94 | 1021.6 | |
| 20260506133016 | -1 | 0.0 | 0.0 | 0.00 | 0.61 | 0.00 | 94 | 1021.5 | |
| 20260506132016 | -1 | 0.0 | 0.0 | 0.00 | 0.61 | 0.00 | 94 | 1021.2 | |
| 20260506131016 | -1 | 0.0 | 0.0 | 0.00 | 0.61 | 0.00 | 94 | 1020.9 | |
| 20260506130037 | -1 | 0.0 | 0.0 | 0.00 | 0.61 | 0.00 | 94 | 1020.9 | |
| 20260506125015 | -1 | 0.0 | 0.0 | 0.00 | 0.64 | 0.00 | 94 | 1020.8 | |
| 20260506124015 | -1 | 0.0 | 0.0 | 0.00 | 0.64 | 0.00 | 94 | 1020.6 | |
| 20260506123015 | -1 | 0.0 | 0.0 | 0.00 | 0.66 | 0.00 | 94 | 1020.5 | |
| 20260506122016 | -1 | 0.0 | 0.0 | 0.00 | 0.69 | 0.00 | 94 | 1020.7 | |
| 20260506121016 | -1 | 0.0 | 0.0 | 0.00 | 0.69 | 0.00 | 94 | 1020.5 | |
| 20260506120017 | -1 | 0.0 | 0.0 | 0.00 | 0.71 | 0.00 | 94 | 1020.4 | |
| 20260506115057 | -1 | 0.0 | 0.0 | 0.00 | 0.71 | 0.00 | 94 | 1020.5 | |
| 20260506114015 | -1 | 0.0 | 0.0 | 0.00 | 0.71 | 0.00 | 94 | 1020.0 | |
| 20260506113015 | -1 | 0.0 | 0.0 | 0.00 | 0.71 | 0.00 | 94 | 1019.8 | |
| 20260506112015 | -1 | 0.0 | 0.0 | 0.00 | 0.74 | 0.00 | 94 | 1020.0 | |
| 20260506111016 | -1 | 0.0 | 0.0 | 0.00 | 0.76 | 0.00 | 94 | 1020.1 | |
| 20260506110016 | -1 | 0.0 | 0.0 | 0.00 | 0.76 | 0.00 | 94 | 1020.0 | |
| 20260506105017 | -1 | 0.0 | 0.0 | 0.00 | 0.76 | 0.00 | 94 | 1019.8 | |
| 20260506104017 | -1 | 0.0 | 0.0 | 0.00 | 0.76 | 0.00 | 94 | 1019.9 | |
| 20260506103035 | -1 | 0.0 | 0.0 | 0.00 | 0.76 | 0.00 | 94 | 1020.0 | |
| 20260506102015 | -1 | 0.0 | 0.0 | 0.00 | 0.76 | 0.00 | 94 | 1020.0 | |
| 20260506101015 | -1 | 0.0 | 0.0 | 0.00 | 0.76 | 0.00 | 94 | 1019.9 | |
| 20260506100016 | -1 | 0.0 | 0.0 | 0.00 | 0.76 | 0.00 | 94 | 1019.8 | |
| 20260506095016 | -1 | 0.0 | 0.0 | 0.00 | 0.76 | 0.00 | 95 | 1019.9 | |
| 20260506094016 | -1 | 0.0 | 0.0 | 0.00 | 0.76 | 0.00 | 94 | 1019.8 | |
| 20260506093017 | -1 | 0.0 | 0.0 | 0.00 | 0.76 | 0.00 | 94 | 1019.5 | |
| 20260506092014 | -1 | 0.0 | 0.0 | 0.00 | 0.76 | 0.00 | 94 | 1019.5 | |
| 20260506091035 | -1 | 0.0 | 0.0 | 0.00 | 0.76 | 0.00 | 95 | 1019.6 | |
| 20260506090015 | -1 | 0.0 | 0.0 | 0.00 | 0.76 | 0.00 | 95 | 1019.6 | |
| 20260506085016 | -1 | 0.0 | 0.0 | 0.00 | 0.76 | 0.00 | 95 | 1019.7 | |
| 20260506084016 | -1 | 0.0 | 0.0 | 0.00 | 0.76 | 0.00 | 95 | 1019.8 | |
| 20260506083057 | -1 | 0.0 | 0.0 | 0.00 | 0.76 | 0.00 | 95 | 1019.9 | |
| 20260506082017 | -1 | 0.0 | 0.0 | 0.00 | 0.76 | 0.00 | 95 | 1019.8 | |
| 20260506081015 | -1 | 0.0 | 0.0 | 0.00 | 0.76 | 0.00 | 95 | 1019.7 | |
| 20260506073016 | -1 | 0.0 | 0.0 | 0.00 | 0.76 | 0.00 | 95 | 1019.6 | |
| 20260506072016 | -1 | 0.0 | 0.0 | 0.00 | 0.76 | 0.00 | 95 | 1019.7 | |
| 20260506071037 | 0 | 0.0 | 0.0 | 0.00 | 0.76 | 0.00 | 95 | 1019.8 | |
| 20260506062036 | 0 | 0.0 | 0.0 | 0.00 | 0.76 | 0.00 | 95 | 1019.3 | |
| 20260506061016 | 0 | 0.0 | 0.0 | 0.00 | 0.76 | 0.00 | 95 | 1019.2 | |
| 20260506051016 | 0 | 0.0 | 0.0 | 0.00 | 0.79 | 0.76 | 95 | 1018.9 | |
| 20260506045017 | 0 | 0.0 | 0.0 | 0.00 | 0.91 | 0.76 | 95 | 1018.9 | |
| 20260506044015 | 0 | 0.0 | 0.0 | 0.00 | 1.09 | 0.76 | 95 | 1018.8 | |
| 20260506043015 | 0 | 0.0 | 0.0 | 0.00 | 1.12 | 0.76 | 95 | 1018.9 | |
| 20260506042016 | 0 | 0.0 | 0.0 | 0.00 | 1.14 | 0.76 | 95 | 1019.0 | |
| 20260506041016 | 0 | 0.0 | 0.0 | 0.00 | 1.17 | 0.76 | 95 | 1019.0 | |
| 20260506040016 | 0 | 62 | 0.0 | 1.6 | 0.00 | 1.17 | 0.76 | 95 | 1018.9 |
| 20260506035016 | 0 | 0.0 | 0.0 | 0.00 | 1.22 | 0.76 | 95 | 1018.8 | |
| 20260506034017 | 0 | 0.0 | 0.0 | 0.00 | 1.24 | 0.76 | 95 | 1018.5 | |
| 20260506033015 | 0 | 87 | 0.0 | 1.6 | 0.00 | 1.24 | 0.76 | 95 | 1018.4 |
| 20260506032015 | 0 | 0.0 | 0.0 | 0.00 | 1.24 | 0.76 | 95 | 1018.3 | |
| 20260506031015 | 0 | 20 | 0.0 | 1.6 | 0.00 | 1.24 | 0.76 | 95 | 1018.1 |
| 20260506030016 | 0 | 246 | 0.0 | 1.6 | 0.00 | 1.24 | 0.76 | 95 | 1017.9 |
| 20260506025016 | 0 | 289 | 0.0 | 1.6 | 0.00 | 1.24 | 0.76 | 95 | 1017.9 |
| 20260506024017 | 0 | 0.0 | 0.0 | 0.00 | 1.24 | 0.76 | 95 | 1017.6 | |
| 20260506023017 | 0 | 0.0 | 0.0 | 0.00 | 1.24 | 0.76 | 95 | 1017.2 | |
| 20260506022015 | 0 | 0.0 | 0.0 | 0.00 | 1.24 | 0.76 | 95 | 1017.0 | |
| 20260506021015 | 0 | 0.0 | 0.0 | 0.00 | 1.24 | 0.76 | 95 | 1017.0 | |
| 20260506020015 | 0 | 0.0 | 0.0 | 0.00 | 1.24 | 0.76 | 95 | 1016.8 | |
| 20260506015016 | 0 | 0.0 | 0.0 | 0.00 | 1.24 | 0.76 | 95 | 1016.8 | |
| 20260506014016 | 0 | 297 | 0.0 | 1.6 | 0.00 | 1.24 | 0.76 | 95 | 1016.7 |
| 20260506013017 | 0 | 131 | 0.0 | 1.6 | 0.00 | 1.24 | 0.76 | 95 | 1016.5 |
| 20260506012037 | 0 | 0.0 | 0.0 | 0.00 | 1.24 | 0.76 | 94 | 1016.5 | |
| 20260506011015 | 0 | 304 | 0.0 | 1.6 | 0.00 | 1.24 | 0.76 | 94 | 1016.4 |
| 20260506010015 | 0 | 21 | 0.0 | 1.6 | 0.00 | 1.24 | 0.76 | 94 | 1016.2 |
| 20260506005035 | 0 | 96 | 0.0 | 1.6 | 0.00 | 1.24 | 0.76 | 94 | 1016.3 |
| 20260506004016 | 0 | 83 | 0.0 | 1.6 | 0.00 | 1.24 | 0.76 | 94 | 1016.3 |
| 20260506003016 | 0 | 301 | 0.0 | 3.2 | 0.00 | 1.24 | 0.76 | 94 | 1016.1 |
| 20260506002016 | 0 | 85 | 0.0 | 1.6 | 0.00 | 1.24 | 0.76 | 94 | 1016.1 |
| 20260506001037 | 0 | 85 | 0.0 | 1.6 | 0.00 | 1.24 | 0.76 | 94 | 1016.0 |
| 20260506000055 | 0 | 0.0 | 0.0 | 0.00 | 1.24 | 0.76 | 94 | 1015.8 | |
| 20260505235015 | 0 | 0.0 | 0.0 | 0.00 | 1.24 | 0.76 | 94 | 1015.9 | |
| 20260505234016 | 0 | 0.0 | 0.0 | 0.03 | 1.24 | 0.76 | 94 | 1015.9 |